Weather History for VTSS - September, 2013

Change the Weather History Date:

Thursday, September 19, 2013

  Actual Average Record
Temperature  
Mean Temperature 82 °F -  
Max Temperature 88 °F 86 °F 98 °F (2000)
Min Temperature 77 °F 74 °F 73 °F (2002)
Cooling Degree Days 18    
Growing Degree Days 32 (Base 50)    
Moisture  
Dew Point 73 °F    
Average Humidity 73    
Maximum Humidity 89    
Minimum Humidity 47    
Precipitation  
Precipitation 0.00 in - - ()
Sea Level Pressure  
Sea Level Pressure 29.75 in    
Wind  
Wind Speed 4 mph ()    
Max Wind Speed 13 mph    
Max Gust Speed -    
Visibility 6.2 miles    
Events      
Averages and records for this station are not official NWS values.
T = Trace of Precipitation, MM = Missing Value Source: Averaged Metar Reports

Daily Weather History Graph

Daily Weather History Graph

Search for Another Location

Airport or City:

Trip Planner

Search our weather history database for the weather conditions in past years. The results will help you decide how hot, cold, wet, or windy it might be!

Date:

Astronomy

Sep. 19, 2013 Rise Set
Actual Time 6:08 AM ICT 6:16 PM ICT
Civil Twilight 5:47 AM ICT 6:37 PM ICT
Nautical Twilight 5:23 AM ICT 7:01 PM ICT
Astronomical Twilight 4:59 AM ICT 7:25 PM ICT
Moon 6:05 PM ICT (9/19) 5:39 AM ICT (9/19)
Length of Visible Light 12h 49m
Length of Day
12h 07m
Full, 100% of the Moon is Illuminated
Sep 19
Full
Sep 19
Full
Sep 27
Last Quarter
Oct 5
New
Oct 12
First Quarter

Hourly Weather History & Observations

Time (ICT) Temp. Heat Index Dew Point Humidity Pressure Visibility Wind Dir Wind Speed Gust Speed Precip Events Conditions
12:00 AM 77.0 °F - 73.4 °F 89% 29.80 in 6.2 mi Calm Calm - N/A   Mostly Cloudy
12:30 AM 77.0 °F - 73.4 °F 89% 29.77 in 6.2 mi Calm Calm - N/A   Mostly Cloudy
1:00 AM 77 °F - 73 °F 83% 29.77 in 6 mi South 2.3 mph - -   Scattered Clouds
1:00 AM 77.0 °F - 73.4 °F 89% 29.77 in 6.2 mi South 2.3 mph - N/A   Mostly Cloudy
1:30 AM 77.0 °F - 73.4 °F 89% 29.74 in 6.2 mi Calm Calm - N/A   Mostly Cloudy
2:00 AM 78.8 °F - 71.6 °F 78% 29.74 in 6.2 mi WSW 4.6 mph - N/A   Mostly Cloudy
2:30 AM 78.8 °F - 71.6 °F 78% 29.74 in 6.2 mi WSW 3.5 mph - N/A   Mostly Cloudy
3:00 AM 77.0 °F - 73.4 °F 89% 29.71 in 6.2 mi SSW 3.5 mph - N/A   Mostly Cloudy
3:30 AM 78.8 °F - 73.4 °F 83% 29.71 in 6.2 mi SSW 3.5 mph - N/A   Mostly Cloudy
4:00 AM 78.8 °F - 73.4 °F 83% 29.71 in 6.2 mi SSW 2.3 mph - N/A   Mostly Cloudy
4:30 AM 78.8 °F - 73.4 °F 83% 29.71 in 6.2 mi WSW 6.9 mph - N/A   Mostly Cloudy
5:00 AM 80.6 °F 84.6 °F 71.6 °F 74% 29.74 in 6.2 mi SSW 2.3 mph - N/A   Overcast
5:30 AM 80.6 °F 85.4 °F 73.4 °F 79% 29.74 in 6.2 mi SSW 2.3 mph - N/A   Overcast
6:00 AM 80.6 °F 84.6 °F 71.6 °F 74% 29.74 in 6.2 mi South 4.6 mph - N/A   Overcast
6:30 AM 80.6 °F 85.4 °F 73.4 °F 79% 29.74 in 6.2 mi SSW 5.8 mph - N/A   Overcast
7:00 AM 81 °F - 72 °F 68% 29.75 in 6 mi SSW 3.5 mph - -   Overcast
7:00 AM 80.6 °F 84.6 °F 71.6 °F 74% 29.74 in 6.2 mi SSW 3.5 mph - N/A   Overcast
7:30 AM 80.6 °F 85.4 °F 73.4 °F 79% 29.77 in 6.2 mi South 3.5 mph - N/A   Mostly Cloudy
8:00 AM 80.6 °F 86.2 °F 75.2 °F 84% 29.77 in 6.2 mi South 4.6 mph - N/A   Mostly Cloudy
8:30 AM 82.4 °F 89.5 °F 75.2 °F 79% 29.80 in 6.2 mi South 4.6 mph - N/A   Mostly Cloudy
9:00 AM 84.2 °F 90.9 °F 73.4 °F 70% 29.80 in 6.2 mi SW 4.6 mph - N/A   Mostly Cloudy
9:30 AM 87.8 °F 95.6 °F 73.4 °F 62% 29.80 in 6.2 mi WSW 9.2 mph - N/A   Mostly Cloudy
10:00 AM 87.8 °F 93.8 °F 71.6 °F 58% 29.80 in 6.2 mi West 12.7 mph - N/A   Mostly Cloudy
10:30 AM 86.0 °F 91.8 °F 71.6 °F 62% 29.80 in 6.2 mi WSW 6.9 mph - N/A   Mostly Cloudy
11:00 AM 87.8 °F 93.8 °F 71.6 °F 58% 29.80 in 6.2 mi WSW 9.2 mph - N/A   Mostly Cloudy
11:30 AM 87.8 °F 93.8 °F 71.6 °F 58% 29.80 in 6.2 mi WSW 8.1 mph - N/A   Mostly Cloudy
12:00 PM 87.8 °F 92.6 °F 69.8 °F 55% 29.77 in 6.2 mi WSW 9.2 mph - N/A   Mostly Cloudy
12:30 PM 87.8 °F 93.8 °F 71.6 °F 58% 29.77 in 6.2 mi WSW 8.1 mph - N/A   Mostly Cloudy
1:00 PM 89 °F - 71 °F 47% 29.75 in 6 mi SW 10.4 mph - -   Overcast
1:00 PM 89.6 °F 96.2 °F 71.6 °F 55% 29.74 in 6.2 mi SW 10.4 mph - N/A   Mostly Cloudy
1:30 PM 87.8 °F 93.8 °F 71.6 °F 58% 29.74 in 6.2 mi SW 8.1 mph - N/A   Mostly Cloudy
2:00 PM 86.0 °F 91.8 °F 71.6 °F 62% 29.71 in 6.2 mi WSW 6.9 mph - N/A   Mostly Cloudy
2:30 PM 86.0 °F 91.8 °F 71.6 °F 62% 29.71 in 6.2 mi SW 5.8 mph - N/A   Mostly Cloudy
3:00 PM 86.0 °F 93.4 °F 73.4 °F 66% 29.71 in 6.2 mi SW 6.9 mph - N/A   Mostly Cloudy
3:30 PM 86.0 °F 93.4 °F 73.4 °F 66% 29.71 in 6.2 mi SSW 4.6 mph - N/A   Mostly Cloudy
4:00 PM 86.0 °F 93.4 °F 73.4 °F 66% 29.71 in 6.2 mi SW 4.6 mph - N/A   Mostly Cloudy
4:30 PM 86.0 °F 93.4 °F 73.4 °F 66% 29.68 in 6.2 mi SSW 4.6 mph - N/A   Mostly Cloudy
5:00 PM 84.2 °F 89.6 °F 71.6 °F 66% 29.68 in 6.2 mi SW 5.8 mph - N/A   Overcast
5:30 PM 84.2 °F 89.6 °F 71.6 °F 66% 29.68 in 6.2 mi SW 3.5 mph - N/A   Overcast
6:00 PM 84.2 °F 89.6 °F 71.6 °F 66% 29.71 in 6.2 mi SSE 2.3 mph - N/A   Overcast
6:30 PM 82.4 °F 88.2 °F 73.4 °F 74% 29.71 in 6.2 mi SSE 2.3 mph - N/A   Overcast
7:00 PM 81 °F - 73 °F 71% 29.72 in 6 mi South 2.3 mph - -   Overcast
7:00 PM 80.6 °F 85.4 °F 73.4 °F 79% 29.71 in 6.2 mi South 2.3 mph - N/A   Overcast
7:30 PM 80.6 °F 85.4 °F 73.4 °F 79% 29.74 in 6.2 mi South 3.5 mph - N/A   Mostly Cloudy
8:00 PM 80.6 °F 85.4 °F 73.4 °F 79% 29.74 in 6.2 mi South 4.6 mph - N/A   Mostly Cloudy
8:30 PM 80.6 °F 85.4 °F 73.4 °F 79% 29.74 in 6.2 mi SSE 2.3 mph - N/A   Mostly Cloudy
9:00 PM 80.6 °F 85.4 °F 73.4 °F 79% 29.77 in 6.2 mi Calm Calm - N/A   Mostly Cloudy
9:30 PM 80.6 °F 85.4 °F 73.4 °F 79% 29.80 in 6.2 mi South 3.5 mph - N/A   Overcast
10:00 PM 78.8 °F - 73.4 °F 83% 29.80 in 6.2 mi South 3.5 mph - N/A   Overcast
10:30 PM 78.8 °F - 73.4 °F 83% 29.80 in 6.2 mi WSW 4.6 mph - N/A   Overcast
11:00 PM 78.8 °F - 73.4 °F 83% 29.80 in 6.2 mi SSW 3.5 mph - N/A   Overcast
11:30 PM 80.6 °F 85.4 °F 73.4 °F 79% 29.80 in 6.2 mi SW 6.9 mph - N/A   Overcast